Weather History for St. James, MN

Change the Weather History Date:

Tuesday, February 5, 2013

  Actual Average Record
Temperature  
Mean Temperature 24 °F -  
Max Temperature 35 °F 23 °F 55 °F (1964)
Min Temperature 12 °F 4 °F -25 °F (1979)
Degree Days  
Heating Degree Days 42    
Moisture  
Dew Point 18 °F    
Average Humidity 73    
Maximum Humidity 86    
Minimum Humidity 59    
Precipitation  
Precipitation 0.00 in - - ()
Sea Level Pressure  
Sea Level Pressure 29.88 in    
Wind  
Wind Speed 11 mph (West)    
Max Wind Speed 22 mph    
Max Gust Speed 33 mph    
Visibility 10 miles    
Events Snow    
Averages and records for this station are not official NWS values.
T = Trace of Precipitation, MM = Missing Value Source: NWS Daily Summary

Daily Weather History Graph

Daily Weather History Graph

Search for Another Location

Airport:

Trip Planner

Search our weather history database for the weather conditions in past years. The results will help you decide how hot, cold, wet, or windy it might be!

Date:

Astronomy

Feb. 05, 2013 Rise Set
Actual Time 7:30 AM CST 5:34 PM CST
Civil Twilight 7:00 AM CST 6:04 PM CST
Nautical Twilight 6:25 AM CST 6:39 PM CST
Astronomical Twilight 5:52 AM CST 7:12 PM CST
Moon 3:17 AM CST (2/5) 12:48 PM CST (2/5)
Length of Visible Light 11h 04m
Length of Day
10h 04m
Waning Crescent, 26% of the Moon is Illuminated
Feb 5
Waning Crescent
Feb 10
New
Feb 17
First Quarter
Feb 25
Full
Mar 4
Last Quarter

Hourly Weather History & Observations

Time (CST) Temp. Windchill Dew Point Humidity Pressure Visibility Wind Dir Wind Speed Gust Speed Precip Events Conditions
12:15 AM 26.6 °F 13.4 °F 17.6 °F 69% 29.74 in 10.0 mi South 18.4 mph - N/A   Overcast
12:35 AM 26.6 °F 13.4 °F 17.6 °F 69% 29.72 in 10.0 mi South 18.4 mph - N/A   Scattered Clouds
12:55 AM 26.6 °F 15.2 °F 17.6 °F 69% 29.72 in 10.0 mi South 13.8 mph - N/A   Scattered Clouds
1:15 AM 26.6 °F 14.7 °F 17.6 °F 69% 29.71 in 10.0 mi South 15.0 mph - N/A   Scattered Clouds
1:35 AM 26.6 °F 17.5 °F 19.4 °F 74% 29.71 in 10.0 mi South 9.2 mph 18.4 mph N/A   Clear
1:55 AM 26.6 °F 19.1 °F 19.4 °F 74% 29.71 in 10.0 mi SSW 6.9 mph - N/A   Clear
2:15 AM 28.4 °F 19.7 °F 19.4 °F 69% 29.71 in 10.0 mi SSW 9.2 mph 17.3 mph N/A   Clear
2:35 AM 28.4 °F 19.7 °F 19.4 °F 69% 29.71 in 10.0 mi SSW 9.2 mph - N/A   Clear
2:55 AM 28.4 °F 18.5 °F 19.4 °F 69% 29.70 in 10.0 mi SSW 11.5 mph 16.1 mph N/A   Clear
3:15 AM 26.6 °F 19.1 °F 19.4 °F 74% 29.69 in 10.0 mi SSW 6.9 mph - N/A   Clear
3:35 AM 26.6 °F 22.6 °F 19.4 °F 74% 29.69 in 10.0 mi SSW 3.5 mph - N/A   Clear
3:54 AM 26.6 °F - 19.4 °F 74% 29.68 in 10.0 mi Calm Calm - N/A   Clear
4:15 AM 26.6 °F 21.2 °F 19.4 °F 74% 29.69 in 10.0 mi SSW 4.6 mph - N/A   Clear
4:35 AM 26.6 °F - 19.4 °F 74% 29.69 in 10.0 mi Calm Calm - N/A   Clear
4:55 AM 26.6 °F - 19.4 °F 74% 29.69 in 10.0 mi Calm Calm - N/A   Clear
5:15 AM 26.6 °F 16.8 °F 19.4 °F 74% 29.71 in 10.0 mi SW 10.4 mph - N/A   Scattered Clouds
5:35 AM 28.4 °F - 21.2 °F 74% 29.70 in 10.0 mi Calm Calm - N/A   Mostly Cloudy
5:54 AM 28.4 °F 19.7 °F 21.2 °F 74% 29.70 in 10.0 mi WSW 9.2 mph - N/A   Overcast
6:15 AM 30.2 °F 21.9 °F 23.0 °F 75% 29.70 in 4.0 mi WSW 9.2 mph - N/A Snow Light Snow
6:35 AM 30.2 °F 21.3 °F 24.8 °F 80% 29.70 in 3.0 mi WSW 10.4 mph - N/A Snow Light Snow
6:54 AM 30.2 °F 21.3 °F 26.6 °F 86% 29.71 in 10.0 mi West 10.4 mph - N/A   Overcast
7:15 AM 32.0 °F 23.6 °F 26.6 °F 80% 29.73 in 10.0 mi West 10.4 mph - N/A   Overcast
7:35 AM 32.0 °F 23.6 °F 26.6 °F 80% 29.73 in 10.0 mi West 10.4 mph - N/A   Overcast
7:55 AM 33.8 °F 24.3 °F 28.4 °F 81% 29.75 in 10.0 mi West 13.8 mph - N/A   Overcast
8:15 AM 33.8 °F 25.3 °F 26.6 °F 75% 29.76 in 10.0 mi WNW 11.5 mph - N/A   Overcast
8:35 AM 33.8 °F 25.3 °F 28.4 °F 81% 29.78 in 10.0 mi WNW 11.5 mph - N/A   Overcast
8:55 AM 33.8 °F 24.8 °F 28.4 °F 81% 29.79 in 10.0 mi WNW 12.7 mph - N/A   Overcast
9:15 AM 33.8 °F 25.3 °F 28.4 °F 81% 29.80 in 10.0 mi WNW 11.5 mph - N/A   Overcast
9:35 AM 33.8 °F 25.3 °F 28.4 °F 81% 29.81 in 10.0 mi WNW 11.5 mph - N/A   Overcast
9:55 AM 35.6 °F 27.5 °F 28.4 °F 75% 29.82 in 10.0 mi WNW 11.5 mph - N/A   Overcast
10:15 AM 35.6 °F 27.1 °F 28.4 °F 75% 29.84 in 10.0 mi WNW 12.7 mph 18.4 mph N/A   Overcast
10:35 AM 35.6 °F 26.6 °F 28.4 °F 75% 29.85 in 10.0 mi WNW 13.8 mph 20.7 mph N/A   Overcast
10:55 AM 35.6 °F 26.6 °F 28.4 °F 75% 29.86 in 10.0 mi WNW 13.8 mph - N/A   Overcast
11:15 AM 35.6 °F 25.5 °F 28.4 °F 75% 29.87 in 10.0 mi NW 17.3 mph 24.2 mph N/A   Overcast
11:34 AM 35.6 °F 25.2 °F 28.4 °F 75% 29.88 in 10.0 mi WNW 18.4 mph 24.2 mph N/A   Overcast
11:55 AM 35.6 °F 24.8 °F 26.6 °F 70% 29.88 in 10.0 mi WNW 19.6 mph 26.5 mph N/A   Overcast
12:15 PM 33.8 °F 22.8 °F 26.6 °F 75% 29.89 in 10.0 mi WNW 18.4 mph 26.5 mph N/A   Overcast
12:34 PM 33.8 °F 23.2 °F 26.6 °F 75% 29.90 in 10.0 mi WNW 17.3 mph - N/A   Overcast
12:55 PM 32.0 °F 20.1 °F 24.8 °F 75% 29.91 in 10.0 mi WNW 19.6 mph 25.3 mph N/A   Overcast
1:15 PM 30.2 °F 17.1 °F 21.2 °F 69% 29.92 in 10.0 mi WNW 21.9 mph 28.8 mph N/A   Overcast
1:34 PM 28.4 °F 15.8 °F 19.4 °F 69% 29.94 in 10.0 mi WNW 18.4 mph 33.4 mph N/A   Overcast
1:55 PM 28.4 °F 16.2 °F 19.4 °F 69% 29.95 in 10.0 mi WNW 17.3 mph - N/A   Overcast
2:15 PM 28.4 °F 15.4 °F 17.6 °F 64% 29.95 in 10.0 mi West 19.6 mph - N/A   Overcast
2:34 PM 26.6 °F 13.1 °F 17.6 °F 69% 29.96 in 10.0 mi WNW 19.6 mph 25.3 mph N/A   Overcast
2:55 PM 26.6 °F 13.1 °F 15.8 °F 64% 29.96 in 10.0 mi NW 19.6 mph 25.3 mph N/A   Mostly Cloudy
3:15 PM 24.8 °F 10.7 °F 14.0 °F 64% 29.99 in 10.0 mi NW 19.6 mph 24.2 mph N/A   Mostly Cloudy
3:35 PM 24.8 °F 11.9 °F 15.8 °F 69% 30.00 in 10.0 mi NW 16.1 mph 19.6 mph N/A   Mostly Cloudy
3:55 PM 24.8 °F 11.1 °F 12.2 °F 59% 30.00 in 10.0 mi NW 18.4 mph - N/A   Mostly Cloudy
4:14 PM 23.0 °F 12.4 °F 14.0 °F 68% 30.01 in 10.0 mi NW 10.4 mph - N/A   Scattered Clouds
4:35 PM 21.2 °F 9.5 °F 12.2 °F 68% 30.02 in 10.0 mi NW 11.5 mph - N/A   Scattered Clouds
4:55 PM 21.2 °F 9.5 °F 14.0 °F 74% 30.02 in 10.0 mi WNW 11.5 mph - N/A   Scattered Clouds
5:15 PM 21.2 °F 9.5 °F 12.2 °F 68% 30.03 in 10.0 mi WNW 11.5 mph - N/A   Clear
5:35 PM 21.2 °F 10.9 °F 12.2 °F 68% 30.03 in 10.0 mi WNW 9.2 mph - N/A   Clear
5:55 PM 19.4 °F 7.9 °F 12.2 °F 74% 30.03 in 10.0 mi NW 10.4 mph - N/A   Clear
6:15 PM 19.4 °F 7.9 °F 10.4 °F 68% 30.03 in 10.0 mi NW 10.4 mph - N/A   Clear
6:35 PM 19.4 °F - 10.4 °F 68% 30.05 in 10.0 mi Calm Calm - N/A   Clear
6:55 PM 17.6 °F - 10.4 °F 73% 30.05 in 10.0 mi Calm Calm - N/A   Clear
7:15 PM 17.6 °F - 10.4 °F 73% 30.06 in 10.0 mi Calm Calm - N/A   Clear
7:35 PM 17.6 °F - 8.6 °F 68% 30.06 in 10.0 mi Calm Calm - N/A   Clear
7:55 PM 15.8 °F - 8.6 °F 73% 30.06 in 10.0 mi Calm Calm - N/A   Clear
8:15 PM 15.8 °F 6.1 °F 8.6 °F 73% 30.07 in 10.0 mi WNW 6.9 mph - N/A   Clear
8:35 PM 15.8 °F - 8.6 °F 73% 30.08 in 10.0 mi Calm Calm - N/A   Clear
9:15 PM 14.0 °F - 6.8 °F 73% 30.09 in 10.0 mi Calm Calm - N/A   Clear
9:35 PM 12.2 °F - 6.8 °F 79% 30.08 in 10.0 mi Calm Calm - N/A   Clear
9:54 PM 12.2 °F - 6.8 °F 79% 30.09 in 10.0 mi Calm Calm - N/A   Clear
10:15 PM 12.2 °F - 6.8 °F 79% 30.09 in 10.0 mi Calm Calm - N/A   Clear
10:35 PM 14.0 °F - 6.8 °F 73% 30.09 in 10.0 mi Calm Calm - N/A   Clear
10:55 PM 14.0 °F - 6.8 °F 73% 30.08 in 10.0 mi Calm Calm - N/A   Clear
11:15 PM 15.8 °F - 6.8 °F 68% 30.09 in 10.0 mi Calm Calm - N/A   Clear
11:35 PM 15.8 °F - 6.8 °F 68% 30.10 in 10.0 mi Calm Calm - N/A   Clear
11:55 PM 14.0 °F - 6.8 °F 73% 30.09 in 10.0 mi Calm Calm - N/A   Clear